Powrót do katalogu

THOR BURNER 2A R/B

AktywnySSO
NORAD 7219·ROCKET BODY·🇺🇸 United States

Wystrzelony Mar 16, 1974 z Vandenberg Space Force Base

Loading…

Następne Przeloty (najbliższe 24 godziny)

TLE

ŚwieżeSource: Space-Track

Epoka: Sep 14, 2026, 14:55 UTC

1 07219U 74015B   26257.62157771  .00000091  00000-0  56373-4 0  9992
2 07219  99.0781 224.9053 0064326  44.4153 316.2159 14.26265008725995

Śledź THOR BURNER 2A R/B w czasie rzeczywistym z AllMySat

Download on the App Store